EW1845 Weather Reports


Display with metric or nautical units.
time (UTC)temp
F
wind
direction
speed
MPH
gust
MPH
rain 1hr
in
rain 24hr
in
rain mn
in
humidity
%
barometer
mb
20260901135342 59 347 0.0 0.0 0.00 0.00 0.00 95 1013.6
20260901134629 59 347 0.0 1.0 0.00 0.00 0.00 95 1013.5
20260901134338 59 347 0.0 0.0 0.00 0.00 0.00 95 1013.4
20260901133314 59 349 0.0 0.0 0.00 0.00 0.00 95 1013.3
20260901133002 58 349 0.0 1.0 0.00 0.00 0.00 95 1013.4
20260901132243 59 349 0.0 0.0 0.00 0.00 0.00 95 1013.4
20260901131603 58 349 0.0 1.0 0.00 0.00 0.00 95 1013.4
20260901131229 58 349 0.0 0.0 0.00 0.00 0.00 94 1013.3
20260901130245 59 349 0.0 0.0 0.00 0.00 0.00 94 1013.2
20260901130111 58 349 0.0 1.0 0.00 0.00 0.00 94 1013.3
20260901125213 59 349 0.0 0.0 0.00 0.00 0.00 95 1013.1
20260901124504 58 350 1.0 1.0 0.00 0.00 0.00 95 1013.2
20260901124202 58 350 0.0 0.0 0.00 0.00 0.00 94 1013.1
20260901123141 59 350 0.0 0.0 0.00 0.00 0.00 95 1013.2
20260901123105 58 350 0.0 1.0 0.00 0.00 0.00 95 1013.2
20260901121504 59 350 0.0 1.0 0.00 0.00 0.00 94 1013.2
20260901120954 59 349 0.0 0.0 0.00 0.00 0.00 94 1013.1
20260901120106 59 351 0.0 1.0 0.00 0.00 0.00 94 1013.1
20260901114821 59 351 0.0 0.0 0.00 0.00 0.00 95 1013.0
20260901114502 58 352 1.0 1.0 0.00 0.00 0.00 94 1013.1
20260901113140 59 352 1.0 1.0 0.00 0.00 0.00 94 1013.0
20260901112653 59 352 0.0 0.0 0.00 0.00 0.00 94 1013.0
20260901111704 59 22 0.0 0.0 0.00 0.00 0.00 94 1013.1
20260901111503 59 23 0.0 1.0 0.00 0.00 0.00 94 1013.1
20260901110628 59 23 0.0 0.0 0.00 0.00 0.00 94 1013.0
20260901110003 59 23 0.0 1.0 0.00 0.00 0.00 93 1013.1
20260901105556 60 22 0.0 0.0 0.00 0.00 0.00 95 1013.2
20260901104614 60 23 0.0 0.0 0.00 0.00 0.00 94 1013.1
20260901104606 59 23 0.0 1.0 0.00 0.00 0.00 94 1013.1
20260901103634 60 23 0.0 1.0 0.00 0.00 0.00 94 1013.2
20260901103004 59 23 1.0 1.0 0.00 0.00 0.00 94 1013.3
20260901102603 60 23 0.0 0.0 0.00 0.00 0.00 94 1013.2
20260901101616 59 23 0.0 1.0 0.00 0.00 0.00 93 1013.2
20260901101556 59 23 0.0 0.0 0.00 0.00 0.00 93 1013.2
20260901100615 60 23 0.0 0.0 0.00 0.00 0.00 94 1013.3
20260901100115 60 23 0.0 1.0 0.00 0.00 0.00 93 1013.4
20260901095628 60 23 0.0 0.0 0.00 0.00 0.00 94 1013.4
20260901094646 60 23 0.0 0.0 0.00 0.00 0.00 93 1013.3
20260901094503 59 23 0.0 1.0 0.00 0.00 0.00 93 1013.3
20260901093010 59 23 0.0 1.0 0.00 0.00 0.00 93 1013.2
20260901092552 60 23 0.0 0.0 0.00 0.00 0.00 93 1013.2
20260901091604 60 23 0.0 1.0 0.00 0.00 0.00 93 1013.1
20260901091519 60 23 0.0 0.0 0.00 0.00 0.00 93 1013.1
20260901090505 60 25 0.0 0.0 0.00 0.00 0.00 93 1013.2
20260901090104 60 24 0.0 1.0 0.00 0.00 0.00 93 1013.3
20260901085512 60 23 0.0 0.0 0.00 0.00 0.00 93 1013.3
20260901084502 60 25 1.0 1.0 0.00 0.00 0.00 93 1013.4
20260901083508 60 25 0.0 0.0 0.00 0.00 0.00 93 1013.3
20260901083103 60 40 0.0 1.0 0.00 0.00 0.00 93 1013.4
20260901082447 60 40 0.0 0.0 0.00 0.00 0.00 93 1013.3
20260901081509 61 40 0.0 0.0 0.00 0.00 0.00 93 1013.3
20260901081503 60 40 0.0 1.0 0.00 0.00 0.00 93 1013.3
20260901080515 61 40 0.0 0.0 0.00 0.00 0.00 93 1013.3
20260901075442 61 39 0.0 1.0 0.00 0.00 0.00 93 1013.3
20260901074442 61 40 0.0 1.0 0.00 0.00 0.00 92 1013.3
20260901073431 61 39 0.0 1.0 0.00 0.00 0.00 92 1013.5
20260901073002 61 39 0.0 1.0 0.00 0.00 0.00 92 1013.6
20260901072430 61 39 0.0 1.0 0.00 0.00 0.00 92 1013.6
20260901071603 61 40 1.0 1.0 0.00 0.00 0.00 91 1013.5
20260901071448 61 41 0.0 0.0 0.00 0.00 0.00 91 1013.5
20260901070427 62 41 0.0 1.0 0.00 0.00 0.00 92 1013.4
20260901070108 61 41 1.0 2.0 0.00 0.00 0.00 92 1013.4
20260901065403 62 43 0.0 0.0 0.00 0.00 0.00 91 1013.2
20260901064503 61 43 0.0 2.0 0.00 0.00 0.00 91 1013.2
20260901064409 62 43 0.0 0.0 0.00 0.00 0.00 92 1013.1
20260901063429 61 52 0.0 1.0 0.00 0.00 0.00 92 1013.1
20260901063102 61 29 1.0 2.0 0.00 0.00 0.00 92 1013.1
20260901061504 61 29 0.0 1.0 0.00 0.00 0.00 90 1012.9
20260901061352 61 29 0.0 0.0 0.00 0.00 0.00 90 1012.8
20260901060329 62 29 0.0 1.0 0.00 0.00 0.00 91 1012.9
20260901060002 61 29 1.0 2.0 0.00 0.00 0.00 90 1012.9
20260901055342 62 28 0.0 0.0 0.00 0.00 0.00 90 1012.7
20260901054603 61 28 1.0 2.0 0.00 0.00 0.00 91 1012.9
20260901054351 61 28 0.0 1.0 0.00 0.00 0.00 90 1012.9
20260901053316 62 28 0.0 0.0 0.00 0.00 0.00 89 1012.8
20260901053004 62 28 0.0 2.0 0.00 0.00 0.00 89 1012.8
20260901052308 63 15 0.0 0.0 0.00 0.00 0.00 89 1012.6
20260901051609 62 15 0.0 1.0 0.00 0.00 0.00 88 1012.7
20260901051327 63 17 0.0 0.0 0.00 0.00 0.00 88 1012.8
20260901050325 63 40 0.0 0.0 0.00 0.00 0.00 86 1012.7
20260901045252 63 14 0.0 0.0 0.00 0.00 0.00 86 1012.6
20260901044502 63 14 0.0 1.0 0.00 0.00 0.00 84 1012.6
20260901043119 64 13 0.0 1.0 0.00 0.00 0.00 84 1012.4
20260901043043 64 13 0.0 0.0 0.00 0.00 0.00 85 1012.3
20260901042057 64 25 0.0 0.0 0.00 0.00 0.00 84 1012.3
20260901041503 63 15 0.0 0.0 0.00 0.00 0.00 83 1012.4
20260901041107 64 15 0.0 0.0 0.00 0.00 0.00 82 1012.2
20260901040052 64 351 0.0 0.0 0.00 0.00 0.00 82 1011.9
20260901035117 63 350 0.0 0.0 0.00 0.00 0.00 79 1011.7
20260901034502 63 350 0.0 1.0 0.00 0.00 0.00 82 1011.7
20260901034055 64 350 0.0 0.0 0.00 0.00 0.00 82 1011.6
20260901033102 64 349 0.0 1.0 0.00 0.00 0.00 83 1011.5
20260901033023 65 349 0.0 0.0 0.00 0.00 0.00 85 1011.4
20260901031503 64 77 0.0 1.0 0.00 0.00 0.00 83 1011.3
20260901030847 65 147 0.0 0.0 0.00 0.00 0.00 80 1011.4
20260901030002 65 147 0.0 0.0 0.00 0.00 0.00 80 1011.4
20260901025813 66 147 0.0 0.0 0.00 0.00 0.00 80 1011.4
20260901024605 67 147 0.0 0.0 0.00 0.00 0.00 79 1011.3
20260901023716 68 147 0.0 0.0 0.00 0.00 0.00 78 1011.2
20260901023003 68 147 0.0 1.0 0.00 0.00 0.00 78 1011.4
20260901022711 69 211 0.0 0.0 0.00 0.00 0.00 78 1011.3
20260901021728 69 226 0.0 1.0 0.00 0.00 0.00 77 1011.3
20260901021634 69 226 0.0 2.0 0.00 0.00 0.00 76 1011.3
20260901020717 70 240 0.0 0.0 0.00 0.00 0.00 75 1011.3
20260901020115 70 243 1.0 5.0 0.00 0.00 0.00 73 1011.3
20260901015651 70 141 0.0 0.0 0.00 0.00 0.00 71 1011.2
20260901014708 71 267 1.0 0.0 0.00 0.00 0.00 72 1011.2
20260901014502 71 202 0.0 5.0 0.00 0.00 0.00 71 1011.3
20260901013728 72 142 0.0 5.0 0.00 0.00 0.00 69 1011.2
20260901013110 71 212 0.0 6.0 0.00 0.00 0.00 68 1011.2
20260901012716 72 233 2.0 5.0 0.00 0.00 0.00 66 1011.2
20260901011707 73 251 1.0 4.0 0.00 0.00 0.00 65 1011.2
20260901011503 73 208 1.0 4.0 0.00 0.00 0.00 66 1011.3
20260901010717 74 239 2.0 5.0 0.00 0.00 0.00 64 1011.2
20260901010002 73 266 3.0 6.0 0.00 0.00 0.00 63 1011.3
20260901005646 74 299 1.0 8.0 0.00 0.00 0.00 62 1011.2
20260901004613 75 285 1.0 8.0 0.00 0.00 0.00 60 1011.2
20260901004604 74 219 0.0 9.0 0.00 0.00 0.00 60 1011.2
20260901003555 75 211 3.0 8.0 0.00 0.00 0.00 60 1011.2
20260901003002 75 179 3.0 9.0 0.00 0.00 0.00 58 1011.3
20260901002522 76 207 2.0 8.0 0.00 0.00 0.00 58 1011.2
20260901001613 75 111 1.0 6.0 0.00 0.00 0.00 60 1011.3
20260901001507 76 158 2.0 7.0 0.00 0.00 0.00 60 1011.3
20260901000501 77 205 3.0 8.0 0.00 0.00 0.00 57 1011.4
20260901000113 76 187 3.0 9.0 0.00 0.00 0.00 57 1011.4
20260831234503 78 157 4.0 8.0 0.00 0.00 0.00 52 1011.4
20260831234316 79 200 3.0 6.0 0.00 0.00 0.00 50 1011.3
20260831233321 80 163 2.0 5.0 0.00 0.00 0.00 52 1011.1
20260831233103 79 219 2.0 6.0 0.00 0.00 0.00 51 1011.3
20260831232332 80 212 2.0 7.0 0.00 0.00 0.00 51 1011.2
20260831231503 80 173 2.0 7.0 0.00 0.00 0.00 52 1011.1
20260831231325 81 120 2.0 7.0 0.00 0.00 0.00 52 1011.2
20260831230339 80 255 2.0 9.0 0.00 0.00 0.00 53 1011.4
20260831230001 80 223 1.0 6.0 0.00 0.00 0.00 53 1011.4
20260831225337 80 229 3.0 9.0 0.00 0.00 0.00 55 1011.3
20260831224603 79 237 5.0 9.0 0.00 0.00 0.00 57 1011.4
20260831224308 79 163 4.0 8.0 0.00 0.00 0.00 58 1011.4
20260831223245 80 240 3.0 12.0 0.00 0.00 0.00 60 1011.5
20260831223003 79 198 4.0 12.0 0.00 0.00 0.00 60 1011.5
20260831222235 79 223 4.0 12.0 0.00 0.00 0.00 64 1011.6
20260831221604 79 197 4.0 10.0 0.00 0.00 0.00 62 1011.7
20260831221219 80 193 4.0 9.0 0.00 0.00 0.00 62 1011.7
20260831220232 81 275 4.0 9.0 0.00 0.00 0.00 61 1011.7
20260831220116 81 281 5.0 11.0 0.00 0.00 0.00 61 1011.8
20260831215223 82 160 2.0 9.0 0.00 0.00 0.00 60 1011.9
20260831214503 80 131 2.0 10.0 0.00 0.00 0.00 63 1012.0
20260831214213 81 238 3.0 9.0 0.00 0.00 0.00 61 1011.8
20260831213220 81 229 3.0 9.0 0.00 0.00 0.00 62 1011.9
20260831213102 80 233 3.0 10.0 0.00 0.00 0.00 62 1012.0
20260831212159 81 236 3.0 7.0 0.00 0.00 0.00 62 1012.0
20260831211504 81 228 3.0 8.0 0.00 0.00 0.00 62 1012.3
20260831211141 81 249 3.0 8.0 0.00 0.00 0.00 63 1012.3
20260831210131 81 232 4.0 9.0 0.00 0.00 0.00 62 1012.1
20260831210003 80 200 4.0 9.0 0.00 0.00 0.00 64 1012.1
20260831205117 81 273 5.0 11.0 0.00 0.00 0.00 62 1012.1
20260831204602 80 191 4.0 12.0 0.00 0.00 0.00 62 1012.1
20260831204116 81 236 4.0 11.0 0.00 0.00 0.00 62 1012.1
20260831203132 81 207 3.0 8.0 0.00 0.00 0.00 62 1012.1
20260831203002 81 148 5.0 9.0 0.00 0.00 0.00 61 1012.1
20260831202145 81 243 3.0 8.0 0.00 0.00 0.00 62 1012.1
20260831201141 81 278 3.0 10.0 0.00 0.00 0.00 64 1012.2
20260831200201 81 240 4.0 10.0 0.00 0.00 0.00 64 1012.2
20260831200103 80 199 5.0 11.0 0.00 0.00 0.00 65 1012.2
20260831195154 81 165 4.0 10.0 0.00 0.00 0.00 65 1012.2
20260831194502 80 122 6.0 11.0 0.00 0.00 0.00 64 1012.4
20260831194201 81 273 4.0 10.0 0.00 0.00 0.00 64 1012.4
20260831193102 81 263 4.0 10.0 0.00 0.00 0.00 64 1012.5
20260831192001 81 181 4.0 11.0 0.00 0.00 0.00 64 1012.5
20260831191502 81 212 3.0 12.0 0.00 0.00 0.00 65 1012.6
20260831190953 81 239 3.0 11.0 0.00 0.00 0.00 63 1012.4
20260831190005 81 250 5.0 11.0 0.00 0.00 0.00 63 1012.6
20260831185949 81 232 3.0 9.0 0.00 0.00 0.00 63 1012.6
20260831184952 81 122 2.0 9.0 0.00 0.00 0.00 64 1012.5
20260831184632 80 155 5.0 10.0 0.00 0.00 0.00 65 1012.6
20260831184015 80 134 2.0 7.0 0.00 0.00 0.00 66 1012.5
20260831183004 79 198 2.0 8.0 0.00 0.00 0.00 65 1012.7
20260831182956 80 193 3.0 8.0 0.00 0.00 0.00 65 1012.7
20260831181937 80 192 2.0 8.0 0.00 0.00 0.00 66 1012.6
20260831181603 79 281 1.0 5.0 0.00 0.00 0.00 67 1012.8
20260831180916 79 155 2.0 8.0 0.00 0.00 0.00 67 1012.8
20260831174504 77 195 1.0 6.0 0.00 0.00 0.00 70 1012.8
20260831173641 77 224 2.0 7.0 0.00 0.00 0.00 71 1012.8
20260831173107 76 243 1.0 8.0 0.00 0.00 0.00 71 1012.9
20260831172620 77 221 3.0 7.0 0.00 0.00 0.00 71 1012.7
20260831171633 76 219 2.0 5.0 0.00 0.00 0.00 73 1012.7
20260831171502 76 192 3.0 6.0 0.00 0.00 0.00 71 1012.8
20260831170617 76 193 1.0 7.0 0.00 0.00 0.00 72 1012.7
20260831170002 75 148 1.0 8.0 0.00 0.00 0.00 73 1012.7
20260831165553 75 214 1.0 7.0 0.00 0.00 0.00 74 1012.7
20260831164603 75 212 2.0 5.0 0.00 0.00 0.00 73 1012.6
20260831164518 75 203 0.0 4.0 0.00 0.00 0.00 73 1012.6
20260831163508 74 238 1.0 4.0 0.00 0.00 0.00 77 1012.6
20260831163004 73 150 2.0 6.0 0.00 0.00 0.00 77 1012.5
20260831161606 72 162 2.0 8.0 0.00 0.00 0.00 79 1012.5
20260831161430 72 236 2.0 7.0 0.00 0.00 0.00 79 1012.4
20260831160103 71 23 1.0 3.0 0.00 0.00 0.00 81 1012.5
20260831155356 70 8 0.0 1.0 0.00 0.00 0.00 82 1012.5
20260831154503 69 196 0.0 4.0 0.00 0.00 0.00 84 1012.5
20260831153217 69 191 0.0 4.0 0.00 0.00 0.00 84 1012.2
20260831153102 68 141 2.0 5.0 0.00 0.00 0.00 84 1012.3
20260831151503 68 49 0.0 2.0 0.00 0.00 0.00 86 1012.4
20260831151128 68 148 0.0 0.0 0.00 0.00 0.00 86 1012.3
20260831150100 68 172 0.0 0.0 0.00 0.00 0.00 87 1012.3
20260831150006 67 40 0.0 1.0 0.00 0.00 0.00 87 1012.3
20260831145043 67 41 0.0 0.0 0.00 0.00 0.00 88 1012.2
20260831144633 67 41 0.0 2.0 0.00 0.00 0.00 88 1012.2
20260831144108 67 43 0.0 1.0 0.00 0.00 0.00 88 1012.1
20260831143108 66 26 0.0 1.0 0.00 0.00 0.00 90 1012.0
20260831143004 66 28 0.0 2.0 0.00 0.00 0.00 89 1012.0
20260831142123 66 349 0.0 0.0 0.00 0.00 0.00 90 1011.8
20260831141602 65 350 0.0 0.0 0.00 0.00 0.00 90 1011.8
20260831140028 64 349 0.0 0.0 0.00 0.00 0.00 90 1011.6